Location: Unspecified
(22.6800°N, 112.2000°E)
Time: 11:51:00
(UTC+08:00)

Transit 2A - Pass Details

Date: 09 August 2021
Orbit: 595 x 963 km, 66.7° (Epoch: 16 September)

Event Time Altitude Azimuth Distance (km) Brightness Sun altitude
Rises 05:19:29 0° 251° (WSW) 2,822 - -10.9°
Exits shadow 05:22:55 - 282° (WNW) 2,042 7.7 -10.1°
Reaches altitude 10° 05:24:03 10° 296° (WNW) 1,951 7.7 -9.9°
Maximum altitude 05:24:32 10° 303° (WNW) 1,946 7.8 -9.8°
Drops below altitude 10° 05:25:01 10° 309° (NW) 1,962 7.8 -9.7°
Sets 05:29:46 0° 354° (N) 2,943 9.2 -8.6°
